| time (UTC) | temp F | wind direction | speed MPH | gust MPH | rain 1hr in | rain 24hr in | rain mn in | humidity % | barometer mb |
| 20260507044053 | 41 | 150 | 2.0 | 7.0 | 0.00 | 0.03 | 0.00 | 83 | 1017.6 |
| 20260507043551 | 41 | 139 | 3.0 | 8.0 | 0.00 | 0.03 | 0.00 | 82 | 1017.6 |
| 20260507043101 | 41 | 142 | 3.0 | 8.0 | 0.00 | 0.03 | 0.00 | 82 | 1017.5 |
| 20260507042551 | 41 | 162 | 2.0 | 6.0 | 0.00 | 0.03 | 0.00 | 81 | 1017.5 |
| 20260507042050 | 42 | 149 | 3.0 | 10.0 | 0.00 | 0.03 | 0.00 | 80 | 1017.5 |
| 20260507041553 | 42 | 149 | 4.0 | 10.0 | 0.00 | 0.03 | 0.00 | 78 | 1017.5 |
| 20260507041050 | 42 | 144 | 3.0 | 8.0 | 0.00 | 0.03 | 0.00 | 78 | 1017.5 |
| 20260507040551 | 42 | 119 | 2.0 | 8.0 | 0.00 | 0.03 | 0.00 | 79 | 1017.4 |
| 20260507040055 | 42 | 86 | 2.0 | 7.0 | 0.00 | 0.03 | 0.00 | 80 | 1017.4 |
| 20260507035551 | 43 | 102 | 2.0 | 10.0 | 0.00 | 0.03 | 0.00 | 79 | 1017.4 |
| 20260507035050 | 43 | 131 | 3.0 | 10.0 | 0.00 | 0.03 | 0.00 | 78 | 1017.3 |
| 20260507034553 | 43 | 123 | 4.0 | 10.0 | 0.00 | 0.03 | 0.00 | 80 | 1017.3 |
| 20260507034052 | 43 | 161 | 3.0 | 8.0 | 0.00 | 0.03 | 0.00 | 80 | 1017.3 |
| 20260507033551 | 43 | 132 | 2.0 | 7.0 | 0.00 | 0.03 | 0.00 | 81 | 1017.2 |
| 20260507033055 | 43 | 117 | 2.0 | 7.0 | 0.00 | 0.03 | 0.00 | 81 | 1017.3 |
| 20260507032551 | 43 | 110 | 3.0 | 6.0 | 0.00 | 0.03 | 0.00 | 81 | 1017.3 |
| 20260507032055 | 42 | 153 | 3.0 | 8.0 | 0.00 | 0.03 | 0.00 | 80 | 1017.3 |
| 20260507031553 | 43 | 126 | 2.0 | 8.0 | 0.00 | 0.03 | 0.00 | 80 | 1017.1 |
| 20260507031054 | 43 | 150 | 2.0 | 9.0 | 0.00 | 0.03 | 0.00 | 80 | 1017.1 |
| 20260507030552 | 43 | 130 | 2.0 | 9.0 | 0.00 | 0.03 | 0.00 | 81 | 1017.0 |
| 20260507030053 | 43 | 121 | 2.0 | 9.0 | 0.00 | 0.03 | 0.00 | 80 | 1017.0 |
| 20260507025554 | 43 | 139 | 3.0 | 9.0 | 0.00 | 0.03 | 0.00 | 80 | 1017.0 |
| 20260507025054 | 43 | 139 | 3.0 | 9.0 | 0.00 | 0.03 | 0.00 | 79 | 1017.0 |
| 20260507024611 | 43 | 134 | 3.0 | 7.0 | 0.00 | 0.03 | 0.00 | 80 | 1017.0 |
| 20260507024050 | 43 | 164 | 1.0 | 3.0 | 0.00 | 0.03 | 0.00 | 83 | 1017.0 |
| 20260507023557 | 42 | 137 | 1.0 | 4.0 | 0.00 | 0.03 | 0.00 | 82 | 1016.9 |
| 20260507023056 | 43 | 171 | 0.0 | 5.0 | 0.00 | 0.03 | 0.00 | 82 | 1016.8 |
| 20260507022554 | 43 | 265 | 2.0 | 7.0 | 0.00 | 0.03 | 0.00 | 81 | 1016.8 |
| 20260507022054 | 43 | 183 | 2.0 | 7.0 | 0.00 | 0.03 | 0.00 | 80 | 1016.8 |
| 20260507021557 | 43 | 156 | 3.0 | 7.0 | 0.00 | 0.03 | 0.00 | 79 | 1016.8 |
| 20260507021050 | 43 | 141 | 1.0 | 7.0 | 0.00 | 0.03 | 0.00 | 79 | 1016.8 |
| 20260507020551 | 44 | 144 | 3.0 | 7.0 | 0.00 | 0.03 | 0.00 | 78 | 1016.7 |
| 20260507020108 | 44 | 146 | 1.0 | 6.0 | 0.00 | 0.03 | 0.00 | 78 | 1016.7 |
| 20260507015551 | 44 | 0 | 1.0 | 6.0 | 0.00 | 0.03 | 0.00 | 77 | 1016.7 |
| 20260507015051 | 44 | 207 | 3.0 | 6.0 | 0.00 | 0.03 | 0.00 | 76 | 1016.6 |
| 20260507014606 | 44 | 200 | 1.0 | 6.0 | 0.00 | 0.03 | 0.00 | 75 | 1016.6 |
| 20260507014051 | 44 | 184 | 3.0 | 9.0 | 0.00 | 0.03 | 0.00 | 73 | 1016.6 |
| 20260507013552 | 44 | 247 | 3.0 | 9.0 | 0.00 | 0.03 | 0.00 | 73 | 1016.5 |
| 20260507013054 | 45 | 129 | 3.0 | 9.0 | 0.00 | 0.03 | 0.00 | 72 | 1016.5 |
| 20260507012554 | 45 | 160 | 3.0 | 7.0 | 0.00 | 0.03 | 0.00 | 73 | 1016.5 |
| 20260507012051 | 44 | 175 | 3.0 | 7.0 | 0.00 | 0.03 | 0.00 | 75 | 1016.6 |
| 20260507011604 | 44 | 165 | 3.0 | 7.0 | 0.00 | 0.03 | 0.00 | 75 | 1016.5 |
| 20260507011050 | 44 | 173 | 0.0 | 4.0 | 0.00 | 0.03 | 0.00 | 78 | 1016.6 |
| 20260507010551 | 43 | 161 | 1.0 | 4.0 | 0.00 | 0.03 | 0.00 | 78 | 1016.6 |
| 20260507010054 | 43 | 115 | 2.0 | 7.0 | 0.00 | 0.03 | 0.00 | 78 | 1016.6 |
| 20260507005552 | 43 | 157 | 2.0 | 8.0 | 0.00 | 0.03 | 0.00 | 80 | 1016.7 |
| 20260507005052 | 43 | 178 | 1.0 | 8.0 | 0.00 | 0.03 | 0.00 | 81 | 1016.6 |
| 20260507004556 | 43 | 178 | 2.0 | 8.0 | 0.00 | 0.03 | 0.00 | 80 | 1016.6 |
| 20260507004051 | 44 | 265 | 1.0 | 8.0 | 0.00 | 0.03 | 0.00 | 80 | 1016.6 |
| 20260507003552 | 44 | 218 | 2.0 | 8.0 | 0.00 | 0.03 | 0.00 | 78 | 1016.6 |
| 20260507003057 | 45 | 162 | 3.0 | 8.0 | 0.00 | 0.03 | 0.00 | 72 | 1016.5 |
| 20260507002551 | 45 | 137 | 2.0 | 8.0 | 0.00 | 0.03 | 0.00 | 70 | 1016.5 |
| 20260507002057 | 45 | 161 | 1.0 | 7.0 | 0.00 | 0.03 | 0.00 | 70 | 1016.5 |
| 20260507001557 | 45 | 0 | 2.0 | 7.0 | 0.00 | 0.03 | 0.00 | 71 | 1016.4 |
| 20260507001053 | 45 | 165 | 2.0 | 9.0 | 0.00 | 0.03 | 0.00 | 70 | 1016.4 |
| 20260507000551 | 45 | 227 | 3.0 | 10.0 | 0.00 | 0.03 | 0.00 | 70 | 1016.5 |
| 20260507000056 | 45 | 221 | 5.0 | 10.0 | 0.00 | 0.03 | 0.00 | 71 | 1016.5 |
| 20260506235552 | 45 | 225 | 4.0 | 10.0 | 0.00 | 0.03 | 0.00 | 72 | 1016.4 |
| 20260506235051 | 45 | 139 | 4.0 | 10.0 | 0.00 | 0.03 | 0.00 | 70 | 1016.3 |
| 20260506234601 | 45 | 196 | 3.0 | 9.0 | 0.00 | 0.03 | 0.00 | 69 | 1016.4 |
| 20260506234055 | 45 | 142 | 2.0 | 7.0 | 0.00 | 0.03 | 0.00 | 71 | 1016.3 |
| 20260506233556 | 45 | 249 | 2.0 | 7.0 | 0.00 | 0.03 | 0.00 | 70 | 1016.3 |
| 20260506233058 | 45 | 216 | 2.0 | 6.0 | 0.00 | 0.03 | 0.00 | 71 | 1016.3 |
| 20260506232553 | 45 | 146 | 2.0 | 6.0 | 0.00 | 0.03 | 0.00 | 73 | 1016.2 |
| 20260506232053 | 45 | 218 | 2.0 | 8.0 | 0.00 | 0.03 | 0.00 | 74 | 1016.3 |
| 20260506231558 | 45 | 129 | 2.0 | 8.0 | 0.00 | 0.03 | 0.00 | 74 | 1016.2 |
| 20260506231056 | 45 | 171 | 3.0 | 8.0 | 0.00 | 0.03 | 0.00 | 74 | 1016.3 |
| 20260506230552 | 44 | 165 | 2.0 | 6.0 | 0.00 | 0.03 | 0.00 | 73 | 1016.2 |
| 20260506230059 | 44 | 217 | 2.0 | 6.0 | 0.00 | 0.03 | 0.00 | 74 | 1016.1 |
| 20260506225554 | 44 | 200 | 2.0 | 6.0 | 0.00 | 0.03 | 0.00 | 75 | 1016.2 |
| 20260506225053 | 44 | 254 | 2.0 | 4.0 | 0.00 | 0.03 | 0.00 | 75 | 1016.2 |
| 20260506224556 | 44 | 241 | 1.0 | 7.0 | 0.00 | 0.03 | 0.00 | 74 | 1016.1 |
| 20260506224053 | 44 | 265 | 2.0 | 7.0 | 0.00 | 0.03 | 0.00 | 74 | 1016.1 |
| 20260506223553 | 44 | 294 | 2.0 | 7.0 | 0.00 | 0.03 | 0.00 | 74 | 1016.2 |
| 20260506223057 | 44 | 147 | 2.0 | 7.0 | 0.00 | 0.03 | 0.00 | 74 | 1016.1 |
| 20260506222553 | 44 | 228 | 3.0 | 7.0 | 0.00 | 0.03 | 0.00 | 74 | 1016.0 |
| 20260506222051 | 44 | 193 | 2.0 | 7.0 | 0.00 | 0.03 | 0.00 | 76 | 1016.1 |
| 20260506221559 | 43 | 265 | 3.0 | 8.0 | 0.00 | 0.03 | 0.00 | 76 | 1016.1 |
| 20260506221054 | 43 | 225 | 2.0 | 8.0 | 0.00 | 0.03 | 0.00 | 77 | 1016.1 |
| 20260506220553 | 43 | 186 | 3.0 | 8.0 | 0.00 | 0.03 | 0.00 | 78 | 1016.1 |
| 20260506220057 | 43 | 275 | 2.0 | 6.0 | 0.00 | 0.03 | 0.00 | 78 | 1016.1 |
| 20260506215552 | 43 | 131 | 1.0 | 4.0 | 0.00 | 0.03 | 0.00 | 80 | 1016.0 |
| 20260506215054 | 43 | 221 | 1.0 | 4.0 | 0.00 | 0.03 | 0.00 | 81 | 1016.1 |
| 20260506214555 | 43 | 208 | 1.0 | 4.0 | 0.00 | 0.03 | 0.00 | 80 | 1016.1 |
| 20260506214054 | 43 | 265 | 1.0 | 4.0 | 0.00 | 0.03 | 0.00 | 78 | 1016.0 |
| 20260506213553 | 43 | 0 | 1.0 | 4.0 | 0.00 | 0.03 | 0.00 | 77 | 1016.0 |
| 20260506213122 | 43 | 286 | 1.0 | 4.0 | 0.00 | 0.03 | 0.00 | 78 | 1015.9 |
| 20260506212555 | 43 | 212 | 1.0 | 5.0 | 0.00 | 0.03 | 0.00 | 78 | 1015.9 |
| 20260506212055 | 43 | 243 | 1.0 | 5.0 | 0.00 | 0.03 | 0.00 | 78 | 1015.9 |
| 20260506211605 | 43 | 138 | 1.0 | 4.0 | 0.00 | 0.03 | 0.00 | 80 | 1015.8 |
| 20260506211053 | 43 | 123 | 2.0 | 4.0 | 0.00 | 0.03 | 0.00 | 80 | 1015.8 |
| 20260506210554 | 43 | 196 | 1.0 | 7.0 | 0.00 | 0.03 | 0.00 | 79 | 1015.8 |
| 20260506205553 | 42 | 131 | 2.0 | 8.0 | 0.00 | 0.03 | 0.00 | 77 | 1015.8 |
| 20260506205053 | 42 | 205 | 2.0 | 8.0 | 0.00 | 0.03 | 0.00 | 78 | 1015.8 |
| 20260506204557 | 42 | 212 | 2.0 | 7.0 | 0.00 | 0.03 | 0.00 | 78 | 1015.7 |
| 20260506204053 | 42 | 123 | 1.0 | 8.0 | 0.00 | 0.03 | 0.00 | 78 | 1015.7 |
| 20260506203553 | 42 | 126 | 2.0 | 8.0 | 0.00 | 0.03 | 0.00 | 77 | 1015.7 |
| 20260506203053 | 42 | 291 | 1.0 | 7.0 | 0.00 | 0.03 | 0.00 | 79 | 1015.7 |
| 20260506202555 | 42 | 178 | 2.0 | 7.0 | 0.00 | 0.03 | 0.00 | 76 | 1015.6 |
| 20260506202057 | 42 | 165 | 2.0 | 7.0 | 0.00 | 0.03 | 0.00 | 79 | 1015.6 |
| 20260506201600 | 42 | 221 | 1.0 | 6.0 | 0.00 | 0.03 | 0.00 | 80 | 1015.6 |
| 20260506201056 | 42 | 227 | 2.0 | 6.0 | 0.00 | 0.03 | 0.00 | 79 | 1015.5 |
| 20260506200552 | 42 | 142 | 2.0 | 7.0 | 0.00 | 0.03 | 0.00 | 80 | 1015.5 |
| 20260506200101 | 42 | 309 | 1.0 | 7.0 | 0.00 | 0.03 | 0.00 | 80 | 1015.5 |
| 20260506195552 | 42 | 153 | 2.0 | 7.0 | 0.00 | 0.03 | 0.00 | 79 | 1015.4 |
| 20260506195052 | 42 | 0 | 2.0 | 5.0 | 0.00 | 0.03 | 0.00 | 81 | 1015.3 |
| 20260506194623 | 41 | 178 | 2.0 | 6.0 | 0.00 | 0.03 | 0.00 | 81 | 1015.3 |
| 20260506194054 | 41 | 163 | 1.0 | 6.0 | 0.00 | 0.03 | 0.00 | 83 | 1015.4 |
| 20260506193554 | 41 | 142 | 1.0 | 4.0 | 0.00 | 0.03 | 0.00 | 82 | 1015.3 |
| 20260506193057 | 41 | 157 | 1.0 | 5.0 | 0.00 | 0.03 | 0.00 | 81 | 1015.3 |
| 20260506192554 | 41 | 167 | 1.0 | 6.0 | 0.00 | 0.03 | 0.00 | 81 | 1015.3 |
| 20260506192055 | 41 | 153 | 2.0 | 6.0 | 0.00 | 0.03 | 0.00 | 79 | 1015.3 |
| 20260506191607 | 41 | 277 | 1.0 | 3.0 | 0.00 | 0.03 | 0.00 | 79 | 1015.2 |
| 20260506191053 | 41 | 221 | 1.0 | 6.0 | 0.00 | 0.03 | 0.00 | 81 | 1015.3 |
| 20260506190553 | 41 | 0 | 2.0 | 6.0 | 0.00 | 0.03 | 0.00 | 80 | 1015.2 |
| 20260506190058 | 41 | 0 | 2.0 | 6.0 | 0.00 | 0.03 | 0.00 | 81 | 1015.2 |
| 20260506185552 | 41 | 196 | 2.0 | 5.0 | 0.00 | 0.03 | 0.00 | 81 | 1015.2 |
| 20260506185054 | 40 | 162 | 2.0 | 5.0 | 0.00 | 0.03 | 0.00 | 81 | 1015.1 |
| 20260506184609 | 40 | 137 | 1.0 | 4.0 | 0.00 | 0.03 | 0.00 | 81 | 1015.2 |
| 20260506184053 | 40 | 250 | 1.0 | 4.0 | 0.00 | 0.03 | 0.00 | 82 | 1015.2 |
| 20260506183554 | 41 | 238 | 1.0 | 4.0 | 0.00 | 0.03 | 0.00 | 82 | 1015.1 |
| 20260506183102 | 41 | 161 | 1.0 | 4.0 | 0.00 | 0.03 | 0.00 | 81 | 1015.1 |
| 20260506182553 | 41 | 0 | 1.0 | 4.0 | 0.00 | 0.03 | 0.00 | 82 | 1015.1 |
| 20260506182056 | 41 | 273 | 1.0 | 4.0 | 0.00 | 0.03 | 0.00 | 84 | 1015.1 |
| 20260506181552 | 41 | 238 | 1.0 | 2.0 | 0.00 | 0.03 | 0.00 | 83 | 1015.1 |
| 20260506181054 | 41 | 291 | 1.0 | 5.0 | 0.00 | 0.03 | 0.00 | 82 | 1015.0 |
| 20260506180555 | 41 | 0 | 1.0 | 7.0 | 0.00 | 0.03 | 0.00 | 82 | 1015.0 |
| 20260506180054 | 41 | 22 | 1.0 | 7.0 | 0.00 | 0.03 | 0.00 | 80 | 1015.0 |
| 20260506175552 | 41 | 137 | 1.0 | 5.0 | 0.00 | 0.03 | 0.00 | 80 | 1015.0 |
| 20260506175052 | 41 | 119 | 0.0 | 3.0 | 0.00 | 0.03 | 0.00 | 82 | 1015.0 |
| 20260506174551 | 41 | 67 | 1.0 | 3.0 | 0.00 | 0.03 | 0.00 | 82 | 1014.9 |
| 20260506174054 | 41 | 113 | 1.0 | 5.0 | 0.00 | 0.03 | 0.00 | 83 | 1014.9 |
| 20260506173551 | 40 | 146 | 1.0 | 6.0 | 0.00 | 0.03 | 0.00 | 84 | 1015.0 |
| 20260506173103 | 40 | 76 | 1.0 | 6.0 | 0.00 | 0.03 | 0.00 | 83 | 1014.9 |
| 20260506172554 | 40 | 169 | 2.0 | 5.0 | 0.00 | 0.03 | 0.00 | 83 | 1014.9 |
| 20260506172050 | 40 | 134 | 1.0 | 6.0 | 0.00 | 0.03 | 0.00 | 84 | 1014.8 |
| 20260506171555 | 40 | 0 | 1.0 | 6.0 | 0.00 | 0.03 | 0.00 | 84 | 1014.9 |
| 20260506171057 | 40 | 126 | 1.0 | 6.0 | 0.00 | 0.03 | 0.00 | 84 | 1014.8 |
| 20260506170554 | 40 | 178 | 2.0 | 6.0 | 0.00 | 0.03 | 0.00 | 83 | 1014.8 |
| 20260506170113 | 40 | 158 | 1.0 | 5.0 | 0.00 | 0.03 | 0.00 | 85 | 1014.7 |
| 20260506165553 | 40 | 171 | 1.0 | 5.0 | 0.00 | 0.03 | 0.00 | 83 | 1014.6 |
| 20260506165054 | 40 | 108 | 2.0 | 5.0 | 0.00 | 0.03 | 0.00 | 84 | 1014.7 |
| 20260506164552 | 40 | 190 | 1.0 | 5.0 | 0.00 | 0.03 | 0.00 | 83 | 1014.7 |
| 20260506164052 | 40 | 93 | 1.0 | 5.0 | 0.00 | 0.03 | 0.00 | 84 | 1014.6 |
| 20260506163555 | 40 | 108 | 1.0 | 5.0 | 0.00 | 0.03 | 0.00 | 85 | 1014.6 |
| 20260506163104 | 39 | 205 | 2.0 | 5.0 | 0.00 | 0.03 | 0.00 | 84 | 1014.5 |
| 20260506162553 | 39 | 128 | 2.0 | 5.0 | 0.00 | 0.03 | 0.00 | 85 | 1014.5 |
| 20260506162053 | 39 | 0 | 1.0 | 4.0 | 0.00 | 0.03 | 0.00 | 85 | 1014.5 |
| 20260506161554 | 39 | 165 | 1.0 | 3.0 | 0.00 | 0.03 | 0.00 | 86 | 1014.4 |
| 20260506161052 | 39 | 133 | 1.0 | 3.0 | 0.00 | 0.03 | 0.00 | 85 | 1014.3 |
| 20260506160553 | 39 | 126 | 1.0 | 4.0 | 0.00 | 0.03 | 0.00 | 85 | 1014.3 |
| 20260506160107 | 39 | 146 | 1.0 | 4.0 | 0.00 | 0.03 | 0.00 | 86 | 1014.3 |
| 20260506155550 | 39 | 105 | 1.0 | 3.0 | 0.00 | 0.03 | 0.00 | 87 | 1014.3 |
| 20260506155055 | 38 | 123 | 1.0 | 3.0 | 0.00 | 0.03 | 0.00 | 88 | 1014.2 |
| 20260506154604 | 38 | 0 | 0.0 | 2.0 | 0.00 | 0.03 | 0.00 | 88 | 1014.2 |
| 20260506154053 | 38 | 115 | 1.0 | 2.0 | 0.00 | 0.03 | 0.00 | 88 | 1014.1 |
| 20260506153554 | 38 | 93 | 1.0 | 2.0 | 0.00 | 0.03 | 0.00 | 88 | 1014.1 |
| 20260506153054 | 38 | 115 | 1.0 | 3.0 | 0.00 | 0.03 | 0.00 | 87 | 1014.1 |
| 20260506152553 | 38 | 93 | 1.0 | 3.0 | 0.00 | 0.03 | 0.00 | 88 | 1014.2 |
| 20260506152053 | 38 | 126 | 1.0 | 2.0 | 0.00 | 0.03 | 0.00 | 87 | 1014.2 |
| 20260506151558 | 38 | 129 | 1.0 | 2.0 | 0.00 | 0.03 | 0.00 | 87 | 1014.2 |
| 20260506151058 | 38 | 123 | 1.0 | 2.0 | 0.00 | 0.03 | 0.00 | 87 | 1014.1 |
| 20260506150552 | 38 | 165 | 1.0 | 2.0 | 0.00 | 0.03 | 0.00 | 87 | 1014.1 |
| 20260506150101 | 38 | 115 | 1.0 | 2.0 | 0.00 | 0.03 | 0.00 | 87 | 1014.1 |
| 20260506145554 | 38 | 119 | 0.0 | 1.0 | 0.00 | 0.03 | 0.00 | 88 | 1014.0 |
| 20260506145056 | 38 | 0 | 0.0 | 2.0 | 0.00 | 0.03 | 0.00 | 88 | 1014.1 |
| 20260506144606 | 38 | 126 | 0.0 | 2.0 | 0.00 | 0.03 | 0.00 | 88 | 1014.0 |
| 20260506144050 | 38 | 41 | 1.0 | 2.0 | 0.00 | 0.03 | 0.00 | 88 | 1014.0 |
| 20260506143550 | 37 | 126 | 0.0 | 2.0 | 0.00 | 0.03 | 0.00 | 88 | 1014.0 |
| 20260506143103 | 37 | 0 | 0.0 | 2.0 | 0.00 | 0.03 | 0.00 | 89 | 1014.0 |
| 20260506142552 | 37 | 129 | 0.0 | 3.0 | 0.00 | 0.03 | 0.00 | 89 | 1014.0 |
| 20260506142055 | 37 | 137 | 0.0 | 3.0 | 0.00 | 0.03 | 0.00 | 89 | 1014.0 |
| 20260506141555 | 37 | 0 | 1.0 | 3.0 | 0.00 | 0.03 | 0.00 | 89 | 1014.0 |
| 20260506141054 | 36 | 131 | 1.0 | 2.0 | 0.00 | 0.03 | 0.00 | 89 | 1014.0 |
| 20260506140553 | 36 | 119 | 1.0 | 2.0 | 0.00 | 0.03 | 0.00 | 89 | 1014.0 |
| 20260506140055 | 36 | 105 | 1.0 | 2.0 | 0.00 | 0.03 | 0.00 | 89 | 1014.0 |
| 20260506135553 | 36 | 119 | 1.0 | 2.0 | 0.00 | 0.03 | 0.00 | 89 | 1014.0 |
| 20260506135052 | 36 | 123 | 1.0 | 2.0 | 0.00 | 0.03 | 0.00 | 89 | 1014.0 |
| 20260506134601 | 36 | 93 | 1.0 | 2.0 | 0.00 | 0.03 | 0.00 | 89 | 1013.9 |
| 20260506134055 | 36 | 105 | 1.0 | 2.0 | 0.00 | 0.03 | 0.00 | 89 | 1013.9 |
| 20260506133556 | 36 | 146 | 1.0 | 2.0 | 0.00 | 0.03 | 0.00 | 89 | 1014.0 |
| 20260506133053 | 36 | 105 | 0.0 | 2.0 | 0.00 | 0.03 | 0.00 | 89 | 1013.9 |
| 20260506132554 | 36 | 105 | 1.0 | 3.0 | 0.00 | 0.03 | 0.00 | 89 | 1013.9 |
| 20260506132056 | 36 | 137 | 1.0 | 3.0 | 0.00 | 0.03 | 0.00 | 89 | 1013.8 |
| 20260506131557 | 36 | 111 | 1.0 | 3.0 | 0.00 | 0.03 | 0.00 | 89 | 1013.8 |
| 20260506131054 | 36 | 119 | 1.0 | 3.0 | 0.00 | 0.03 | 0.00 | 89 | 1013.7 |
| 20260506130553 | 36 | 115 | 1.0 | 3.0 | 0.00 | 0.03 | 0.00 | 89 | 1013.7 |
| 20260506125556 | 36 | 123 | 1.0 | 3.0 | 0.00 | 0.03 | 0.00 | 89 | 1013.7 |
| 20260506125053 | 36 | 110 | 1.0 | 3.0 | 0.00 | 0.03 | 0.00 | 89 | 1013.7 |
| 20260506124554 | 36 | 129 | 1.0 | 3.0 | 0.00 | 0.03 | 0.00 | 90 | 1013.6 |
| 20260506124053 | 36 | 111 | 1.0 | 3.0 | 0.00 | 0.03 | 0.00 | 90 | 1013.6 |
| 20260506123557 | 36 | 103 | 1.0 | 3.0 | 0.00 | 0.03 | 0.00 | 90 | 1013.7 |
| 20260506123054 | 36 | 119 | 1.0 | 3.0 | 0.00 | 0.03 | 0.00 | 89 | 1013.6 |
| 20260506122551 | 36 | 115 | 1.0 | 2.0 | 0.00 | 0.03 | 0.00 | 89 | 1013.5 |
| 20260506122053 | 36 | 129 | 1.0 | 3.0 | 0.00 | 0.03 | 0.00 | 89 | 1013.5 |
| 20260506121557 | 36 | 0 | 0.0 | 3.0 | 0.00 | 0.03 | 0.00 | 89 | 1013.4 |
| 20260506121050 | 36 | 126 | 0.0 | 2.0 | 0.00 | 0.03 | 0.00 | 89 | 1013.4 |
| 20260506120554 | 36 | 146 | 0.0 | 2.0 | 0.00 | 0.03 | 0.00 | 89 | 1013.4 |
| 20260506120057 | 36 | 0 | 0.0 | 2.0 | 0.00 | 0.03 | 0.00 | 89 | 1013.4 |
| 20260506115554 | 36 | 126 | 0.0 | 2.0 | 0.00 | 0.03 | 0.00 | 89 | 1013.4 |
| 20260506115052 | 36 | 146 | 1.0 | 3.0 | 0.00 | 0.03 | 0.00 | 88 | 1013.4 |
| 20260506114556 | 36 | 108 | 1.0 | 4.0 | 0.00 | 0.03 | 0.00 | 88 | 1013.3 |
| 20260506114052 | 36 | 115 | 1.0 | 4.0 | 0.00 | 0.03 | 0.00 | 88 | 1013.4 |
| 20260506113551 | 36 | 119 | 2.0 | 4.0 | 0.00 | 0.03 | 0.00 | 88 | 1013.2 |
| 20260506113056 | 36 | 105 | 0.0 | 4.0 | 0.00 | 0.03 | 0.00 | 88 | 1013.2 |
| 20260506112551 | 36 | 129 | 1.0 | 5.0 | 0.00 | 0.03 | 0.00 | 88 | 1013.3 |
| 20260506112050 | 36 | 119 | 1.0 | 5.0 | 0.00 | 0.03 | 0.00 | 88 | 1013.2 |
| 20260506111553 | 36 | 103 | 0.0 | 6.0 | 0.00 | 0.03 | 0.00 | 88 | 1013.2 |
| 20260506111054 | 36 | 156 | 1.0 | 6.0 | 0.00 | 0.03 | 0.00 | 87 | 1013.3 |
| 20260506110557 | 36 | 144 | 1.0 | 5.0 | 0.00 | 0.03 | 0.00 | 88 | 1013.1 |
| 20260506110057 | 36 | 61 | 1.0 | 5.0 | 0.00 | 0.03 | 0.00 | 88 | 1013.1 |
| 20260506105554 | 36 | 129 | 1.0 | 3.0 | 0.00 | 0.03 | 0.00 | 88 | 1013.1 |
| 20260506105054 | 36 | 119 | 1.0 | 3.0 | 0.00 | 0.03 | 0.00 | 89 | 1013.0 |
| 20260506104553 | 36 | 119 | 1.0 | 3.0 | 0.00 | 0.03 | 0.00 | 89 | 1013.0 |
| 20260506104052 | 36 | 137 | 1.0 | 3.0 | 0.00 | 0.03 | 0.00 | 90 | 1012.9 |
| 20260506103555 | 36 | 103 | 1.0 | 3.0 | 0.00 | 0.03 | 0.00 | 91 | 1012.9 |
| 20260506103055 | 35 | 111 | 1.0 | 3.0 | 0.00 | 0.03 | 0.00 | 91 | 1012.8 |
| 20260506102553 | 35 | 137 | 1.0 | 6.0 | 0.00 | 0.03 | 0.00 | 91 | 1012.8 |
| 20260506102053 | 35 | 115 | 1.0 | 6.0 | 0.00 | 0.03 | 0.00 | 91 | 1012.8 |
| 20260506101552 | 35 | 106 | 1.0 | 3.0 | 0.00 | 0.03 | 0.00 | 91 | 1012.7 |
| 20260506101054 | 36 | 103 | 1.0 | 3.0 | 0.00 | 0.03 | 0.00 | 90 | 1012.7 |
| 20260506100553 | 36 | 105 | 1.0 | 3.0 | 0.00 | 0.03 | 0.00 | 90 | 1012.5 |
| 20260506100052 | 36 | 129 | 1.0 | 3.0 | 0.00 | 0.03 | 0.00 | 90 | 1012.6 |
| 20260506095554 | 37 | 0 | 0.0 | 2.0 | 0.00 | 0.03 | 0.00 | 91 | 1012.5 |
| 20260506095055 | 36 | 0 | 0.0 | 2.0 | 0.00 | 0.03 | 0.00 | 91 | 1012.5 |
| 20260506094604 | 37 | 119 | 0.0 | 2.0 | 0.00 | 0.03 | 0.00 | 90 | 1012.5 |
| 20260506094052 | 37 | 101 | 1.0 | 2.0 | 0.00 | 0.03 | 0.00 | 91 | 1012.5 |
| 20260506093553 | 37 | 111 | 0.0 | 2.0 | 0.00 | 0.03 | 0.00 | 90 | 1012.5 |
| 20260506093053 | 37 | 0 | 0.0 | 2.0 | 0.00 | 0.03 | 0.00 | 89 | 1012.5 |
| 20260506092552 | 37 | 108 | 1.0 | 2.0 | 0.00 | 0.03 | 0.00 | 89 | 1012.5 |
| 20260506092055 | 37 | 102 | 0.0 | 2.0 | 0.00 | 0.03 | 0.00 | 90 | 1012.5 |
| 20260506091559 | 37 | 51 | 0.0 | 2.0 | 0.00 | 0.03 | 0.00 | 89 | 1012.4 |
| 20260506091053 | 37 | 200 | 1.0 | 2.0 | 0.00 | 0.03 | 0.00 | 90 | 1012.4 |
| 20260506090552 | 37 | 265 | 0.0 | 2.0 | 0.00 | 0.03 | 0.00 | 89 | 1012.4 |
| 20260506090058 | 37 | 146 | 0.0 | 2.0 | 0.00 | 0.03 | 0.00 | 89 | 1012.4 |
| 20260506085552 | 38 | 0 | 0.0 | 2.0 | 0.00 | 0.03 | 0.00 | 89 | 1012.3 |
| 20260506085052 | 38 | 0 | 1.0 | 2.0 | 0.00 | 0.03 | 0.00 | 88 | 1012.2 |
| 20260506084613 | 38 | 137 | 0.0 | 2.0 | 0.00 | 0.03 | 0.00 | 88 | 1012.1 |
| 20260506084052 | 38 | 0 | 0.0 | 1.0 | 0.00 | 0.03 | 0.00 | 88 | 1012.0 |
| 20260506083555 | 38 | 0 | 0.0 | 2.0 | 0.00 | 0.03 | 0.00 | 88 | 1012.0 |
| 20260506083053 | 38 | 0 | 0.0 | 2.0 | 0.00 | 0.03 | 0.00 | 88 | 1011.9 |
| 20260506082554 | 38 | 0 | 0.0 | 1.0 | 0.00 | 0.03 | 0.00 | 89 | 1011.8 |
| 20260506082053 | 38 | 0 | 0.0 | 1.0 | 0.00 | 0.03 | 0.00 | 88 | 1011.9 |
| 20260506081553 | 38 | 0 | 0.0 | 2.0 | 0.01 | 0.03 | 0.00 | 88 | 1011.8 |
| 20260506081051 | 39 | 221 | 0.0 | 2.0 | 0.03 | 0.03 | 0.00 | 88 | 1011.8 |
| 20260506080551 | 39 | 153 | 0.0 | 2.0 | 0.03 | 0.03 | 0.00 | 87 | 1011.8 |
| 20260506073058 | 39 | 0 | 0.0 | 3.0 | 0.03 | 0.03 | 0.03 | 86 | 1011.6 |
| 20260506072555 | 40 | 67 | 0.0 | 3.0 | 0.03 | 0.03 | 0.03 | 85 | 1011.6 |
| 20260506072050 | 40 | 31 | 1.0 | 4.0 | 0.03 | 0.03 | 0.03 | 83 | 1011.7 |
| 20260506071556 | 40 | 93 | 2.0 | 4.0 | 0.02 | 0.02 | 0.02 | 82 | 1011.7 |
| 20260506071054 | 40 | 61 | 2.0 | 4.0 | 0.00 | 0.00 | 0.00 | 80 | 1011.7 |
| 20260506070554 | 40 | 105 | 1.0 | 2.0 | 0.00 | 0.00 | 0.00 | 80 | 1011.6 |
| 20260506062050 | 43 | 0 | 0.0 | 1.0 | 0.00 | 0.00 | 0.00 | 77 | 1010.9 |
| 20260506061600 | 43 | 0 | 0.0 | 2.0 | 0.00 | 0.00 | 0.00 | 77 | 1010.8 |
| 20260506061051 | 43 | 0 | 0.0 | 2.0 | 0.00 | 0.00 | 0.00 | 76 | 1010.8 |
| 20260506060551 | 44 | 291 | 0.0 | 2.0 | 0.00 | 0.00 | 0.00 | 76 | 1010.7 |
| 20260506051050 | 45 | 309 | 0.0 | 2.0 | 0.00 | 0.00 | 0.00 | 73 | 1010.2 |
| 20260506050553 | 45 | 282 | 0.0 | 2.0 | 0.00 | 0.00 | 0.00 | 73 | 1010.1 |
| 20260506050111 | 45 | 265 | 0.0 | 2.0 | 0.00 | 0.00 | 0.00 | 73 | 1009.9 |
| 20260506045055 | 45 | 0 | 0.0 | 2.0 | 0.00 | 0.00 | 0.00 | 73 | 1009.8 |
| 20260506044605 | 45 | 0 | 1.0 | 2.0 | 0.00 | 0.00 | 0.00 | 72 | 1009.8 |